Weather History for KOWD - August, 2013

Change the Weather History Date:

Wednesday, August 28, 2013

  Actual Average Record
Temperature  
Mean Temperature 70 °F -  
Max Temperature 84 °F 76 °F 91 °F (2004)
Min Temperature 55 °F 53 °F 33 °F (1996)
Cooling Degree Days 4    
Growing Degree Days 20 (Base 50)    
Moisture  
Dew Point 60 °F    
Average Humidity 89    
Maximum Humidity 100    
Minimum Humidity 49    
Precipitation  
Precipitation 0.01 in - - ()
Sea Level Pressure  
Sea Level Pressure 29.89 in    
Wind  
Wind Speed 2 mph (NE)    
Max Wind Speed 9 mph    
Max Gust Speed -    
Visibility 4 miles    
Events Fog    
Averages and records for this station are not official NWS values.
T = Trace of Precipitation, MM = Missing Value Source: NWS Daily Summary

Daily Weather History Graph

Daily Weather History Graph

Search for Another Location

Airport or City:

Trip Planner

Search our weather history database for the weather conditions in past years. The results will help you decide how hot, cold, wet, or windy it might be!

Date:

Astronomy

Aug. 28, 2013 Rise Set
Actual Time 6:06 AM EDT 7:24 PM EDT
Civil Twilight 5:37 AM EDT 7:53 PM EDT
Nautical Twilight 5:02 AM EDT 8:28 PM EDT
Astronomical Twilight 4:25 AM EDT 9:05 PM EDT
Moon 11:53 PM EDT (8/28) 2:02 PM EDT (8/28)
Length of Visible Light 14h 16m
Length of Day
13h 18m
Waning Gibbous, 47% of the Moon is Illuminated
Aug 28
Waning Gibbous
Sep 5
New
Sep 12
First Quarter
Sep 19
Full
Sep 26
Last Quarter

Hourly Weather History & Observations

Time (EDT) Temp. Heat Index Dew Point Humidity Pressure Visibility Wind Dir Wind Speed Gust Speed Precip Events Conditions
12:11 AM 60.8 °F - 60.8 °F 100% 29.89 in 1.5 mi ESE 3.5 mph - N/A   Scattered Clouds
12:16 AM 60.8 °F - 59.0 °F 94% 29.89 in 0.8 mi Calm Calm - N/A   Mist
12:30 AM 62.6 °F - 60.8 °F 94% 29.90 in 1.2 mi Calm Calm - N/A   Scattered Clouds
12:36 AM 62.6 °F - 60.8 °F 94% 29.89 in 3.0 mi Calm Calm - N/A   Scattered Clouds
12:53 AM 60.1 °F - 59.0 °F 96% 29.89 in 5.0 mi Calm Calm - N/A   Partly Cloudy
1:32 AM 59.0 °F - 57.2 °F 94% 29.87 in 1.2 mi Calm Calm - N/A   Clear
1:46 AM 60.8 °F - 59.0 °F 94% 29.87 in 3.0 mi Calm Calm - N/A   Clear
1:53 AM 61.0 °F - 60.1 °F 97% 29.88 in 5.0 mi Calm Calm - N/A   Clear
2:12 AM 59.0 °F - 57.2 °F 94% 29.88 in 1.5 mi Calm Calm - 0.01 in   Clear
2:18 AM 59.0 °F - 57.2 °F 94% 29.88 in 0.5 mi Calm Calm - 0.01 in Fog Fog
2:33 AM 60.8 °F - 59.0 °F 94% 29.87 in 0.5 mi Calm Calm - 0.01 in Fog Fog
2:41 AM 60.8 °F - 59.0 °F 94% 29.87 in 2.0 mi Calm Calm - 0.01 in   Mostly Cloudy
2:43 AM 59.0 °F - 57.2 °F 94% 29.87 in 3.0 mi Calm Calm - 0.01 in   Scattered Clouds
2:53 AM 59.0 °F - 57.0 °F 93% 29.87 in 4.0 mi Calm Calm - 0.01 in   Mostly Cloudy
2:58 AM 59.0 °F - 57.2 °F 94% 29.87 in 1.0 mi Calm Calm - N/A   Mist
3:05 AM 60.8 °F - 59.0 °F 94% 29.87 in 0.2 mi Calm Calm - N/A Fog Fog
3:20 AM 60.8 °F - 57.2 °F 88% 29.86 in 2.0 mi Calm Calm - N/A   Overcast
3:28 AM 57.2 °F - 57.2 °F 100% 29.86 in 0.8 mi Calm Calm - N/A   Mist
3:53 AM 59.0 °F - 57.9 °F 96% 29.86 in 0.2 mi Calm Calm - N/A Fog Fog
4:03 AM 59.0 °F - 57.2 °F 94% 29.87 in 3.0 mi Calm Calm - N/A   Mostly Cloudy
4:12 AM 57.2 °F - 57.2 °F 100% 29.86 in 4.0 mi Calm Calm - N/A   Scattered Clouds
4:20 AM 57.2 °F - 55.4 °F 94% 29.86 in 1.2 mi Calm Calm - N/A   Partly Cloudy
4:22 AM 57.2 °F - 55.4 °F 94% 29.86 in 0.8 mi East 3.5 mph - N/A   Mist
4:38 AM 57.2 °F - 55.4 °F 94% 29.87 in 1.2 mi Calm Calm - N/A   Partly Cloudy
4:44 AM 57.2 °F - 55.4 °F 94% 29.87 in 3.0 mi Calm Calm - N/A   Partly Cloudy
4:53 AM 57.0 °F - 57.0 °F 100% 29.87 in 5.0 mi Calm Calm - N/A   Partly Cloudy
5:01 AM 57.2 °F - 55.4 °F 94% 29.87 in 1.2 mi Calm Calm - N/A   Clear
5:03 AM 55.4 °F - 55.4 °F 100% 29.87 in 0.8 mi Calm Calm - N/A   Mist
5:23 AM 57.2 °F - 55.4 °F 94% 29.88 in 0.2 mi Calm Calm - N/A Fog Fog
5:40 AM 57.2 °F - 57.2 °F 100% 29.88 in 1.0 mi Calm Calm - N/A   Mist
5:53 AM 55.9 °F - 55.9 °F 100% 29.88 in 2.0 mi Calm Calm - N/A   Mostly Cloudy
6:01 AM 55.4 °F - 55.4 °F 100% 29.88 in 0.8 mi Calm Calm - N/A   Mist
6:12 AM 55.4 °F - 55.4 °F 100% 29.88 in 2.5 mi Calm Calm - N/A   Mostly Cloudy
6:19 AM 57.2 °F - 55.4 °F 94% 29.89 in 6.0 mi Calm Calm - N/A   Mostly Cloudy
6:44 AM 59.0 °F - 57.2 °F 94% 29.89 in 4.0 mi Calm Calm - N/A   Scattered Clouds
6:53 AM 59.0 °F - 57.9 °F 96% 29.89 in 5.0 mi Calm Calm - N/A   Scattered Clouds
7:53 AM 64.9 °F - 63.0 °F 93% 29.90 in 5.0 mi Calm Calm - N/A   Clear
8:53 AM 71.1 °F - 64.9 °F 81% 29.90 in 6.0 mi Calm Calm - N/A   Haze
9:53 AM 75.9 °F - 64.9 °F 69% 29.90 in 9.0 mi Calm Calm - N/A   Clear
10:53 AM 79.0 °F - 64.0 °F 60% 29.90 in 10.0 mi Variable 6.9 mph - N/A   Clear
11:53 AM 82.0 °F 83.4 °F 64.0 °F 54% 29.89 in 10.0 mi Variable 5.8 mph - N/A   Clear
12:53 PM 82.0 °F 83.4 °F 64.0 °F 54% 29.88 in 10.0 mi NE 6.9 mph - N/A   Clear
1:53 PM 84.0 °F 84.9 °F 63.0 °F 49% 29.88 in 10.0 mi NE 6.9 mph - N/A   Clear
2:53 PM 82.9 °F 83.7 °F 62.1 °F 49% 29.86 in 10.0 mi ESE 5.8 mph - N/A   Clear
3:53 PM 82.0 °F 82.7 °F 61.0 °F 49% 29.86 in 10.0 mi East 4.6 mph - N/A   Clear
4:53 PM 79.0 °F - 64.9 °F 62% 29.88 in 10.0 mi NNE 8.1 mph - N/A   Clear
5:53 PM 73.9 °F - 64.9 °F 73% 29.88 in 10.0 mi NE 8.1 mph - N/A   Partly Cloudy
6:53 PM 71.1 °F - 64.9 °F 81% 29.89 in 10.0 mi NE 5.8 mph - N/A   Clear
7:53 PM 66.9 °F - 63.0 °F 87% 29.91 in 9.0 mi Calm Calm - N/A   Clear
8:53 PM 66.0 °F - 63.0 °F 90% 29.92 in 6.0 mi NE 3.5 mph - N/A   Clear
9:14 PM 64.4 °F - 62.6 °F 94% 29.93 in 2.5 mi ENE 4.6 mph - N/A   Scattered Clouds
9:23 PM 64.4 °F - 62.6 °F 94% 29.93 in 1.8 mi NNE 3.5 mph - N/A   Mostly Cloudy
9:41 PM 64.4 °F - 62.6 °F 94% 29.93 in 3.0 mi East 3.5 mph - N/A   Overcast
9:48 PM 64.4 °F - 62.6 °F 94% 29.93 in 1.8 mi North 3.5 mph - N/A   Overcast
9:53 PM 64.0 °F - 63.0 °F 96% 29.94 in 1.0 mi North 4.6 mph - N/A   Overcast
10:53 PM 64.0 °F - 62.1 °F 93% 29.96 in 1.0 mi NE 5.8 mph - N/A   Overcast
11:14 PM 64.4 °F - 62.6 °F 94% 29.97 in 0.8 mi NNE 8.1 mph - N/A   Overcast
11:33 PM 64.4 °F - 62.6 °F 94% 29.97 in 1.2 mi NE 9.2 mph - N/A   Overcast
11:41 PM 64.4 °F - 62.6 °F 94% 29.97 in 3.0 mi NE 6.9 mph - N/A   Overcast
11:53 PM 64.0 °F - 63.0 °F 96% 29.97 in 3.0 mi NE 5.8 mph - N/A   Overcast